Terminal Aerodrome Forecast
Issued by NWS Tulsa, OK

Home | Current Version | Previous Version | Text Only | Print | Product List | Glossary On
Versions: 1 2 3 4 5 6 7 8 9 10 11 12 13
000
FTUS44 KTSA 272320
TAFTUL
TAF
KTUL 272320Z 2800/2824 20009KT P6SM FEW060 SCT250
     FM280100 17006KT P6SM SKC
     FM281600 19011G18KT P6SM SKC=

USA.gov is the U.S. government's official web portal to all federal, state and local government web resources and services.